Location: Rancho Del Sol Observatory
(38.7214°N, 120.6350°W)
Time: 16:28:31
(UTC-08:00)

Courier 1B Rocket - Pass Details

Date: 31 January 2020
Orbit: 920 x 1202 km, 28.2° (Epoch: 24 February)

Event Time Altitude Azimuth Distance (km) Brightness Sun altitude
Rises 13:08:02 0° 262° (W) 3,980 8.5 32.6°
Reaches altitude 10° 13:11:26 10° 250° (WSW) 2,974 8.1 32.5°
Maximum altitude 13:17:07 25° 199° (SSW) 2,003 9.4 32.1°
Drops below altitude 10° 13:22:30 10° 146° (SSE) 2,802 8.0 31.8°
Sets 13:25:36 0° 134° (SE) 3,704 8.3 31.6°
